Aduana, Mexico

5:25 PM on February 19, 2017 (GMT +0000)
Aduana

Weather History for 76590 - September, 2013

Change the Weather History Date:

Sunday, September 29, 2013

  Actual Average Record
Temperature  
Mean Temperature 80 °F -  
Max Temperature 87 °F 86 °F - ()
Min Temperature 73 °F 72 °F - ()
Cooling Degree Days 15    
Growing Degree Days 30 (Base 50)    
Moisture  
Dew Point 73 °F    
Average Humidity 82    
Maximum Humidity 100    
Minimum Humidity 55    
Precipitation  
Precipitation 0.55 in - - ()
Sea Level Pressure  
Sea Level Pressure 29.92 in    
Wind  
Wind Speed 3 mph ()    
Max Wind Speed 13 mph    
Max Gust Speed -    
Visibility 6.5 miles    
Events Rain    
T = Trace of Precipitation, MM = Missing Value Source: Averaged Metar Reports

Daily Weather History Graph

Daily Weather History Graph

Search for Another Location

Airport or City:

Trip Planner

Search our weather history database for the weather conditions in past years. The results will help you decide how hot, cold, wet, or windy it might be!

Date:

Astronomy

Sep. 29, 2013 Rise Set
Actual Time 11:38 AM UTC 11:36 PM UTC
Civil Twilight 11:15 AM UTC 11:59 PM UTC
Nautical Twilight 10:50 AM UTC 12:24 AM UTC
Astronomical Twilight 10:24 AM UTC 12:50 AM UTC
Moon 6:53 AM UTC (9/29) 8:02 PM UTC (9/29)
Length of Visible Light 12h 43m
Length of Day
11h 58m
Waning Crescent, 29% of the Moon is Illuminated
Sep 29
Waning Crescent
Oct 5
New
Oct 11
First Quarter
Oct 18
Full
Oct 26
Last Quarter

Hourly Weather History & Observations

Time (GMT) Temp. Heat Index Dew Point Humidity Pressure Visibility Wind Dir Wind Speed Gust Speed Precip Events Conditions
12:48 AM 78.8 °F - 75.2 °F 89% 29.92 in 7.0 mi NNE 2.3 mph - N/A   Partly Cloudy
1:47 AM 78.8 °F - 73.4 °F 83% 29.94 in 7.0 mi Calm Calm - N/A   Partly Cloudy
2:48 AM 77.0 °F - 73.4 °F 89% 29.91 in 7.0 mi Calm Calm - N/A   Partly Cloudy
3:47 AM 77.0 °F - 71.6 °F 83% 29.96 in 7.0 mi NE 5.8 mph - N/A   Partly Cloudy
4:46 AM 75.2 °F - 73.4 °F 94% 29.95 in 6.0 mi Calm Calm - N/A Rain Light Rain
5:45 AM 75.2 °F - 73.4 °F 94% 29.94 in 6.0 mi Calm Calm - N/A   Scattered Clouds
6:44 AM 75.2 °F - 73.4 °F 94% 29.93 in 6.0 mi Calm Calm - N/A   Scattered Clouds
7:43 AM 75.2 °F - 75.2 °F 100% 29.93 in 6.0 mi East 9.2 mph - N/A   Scattered Clouds
8:46 AM 73.4 °F - 73.4 °F 100% 29.91 in 6.0 mi Calm Calm - N/A Rain Light Rain
9:45 AM 73.4 °F - 71.6 °F 94% 29.94 in 5.0 mi SSE 9.2 mph - N/A Rain Light Rain
10:44 AM 73.4 °F - 71.6 °F 94% 29.94 in 5.0 mi WNW 12.7 mph - N/A Rain Light Rain
11:43 AM 73.4 °F - 71.6 °F 94% 29.94 in 6.0 mi South 5.8 mph - N/A   Mostly Cloudy
12:40 PM 73.4 °F - 71.6 °F 94% 29.94 in 6.0 mi West 2.3 mph - N/A   Mostly Cloudy
1:42 PM 78.8 °F - 73.4 °F 83% 29.95 in 7.0 mi West 3.5 mph - N/A   Scattered Clouds
2:46 PM 82.4 °F 88.2 °F 73.4 °F 74% 29.96 in 7.0 mi NW 3.5 mph - N/A   Partly Cloudy
3:46 PM 86.0 °F 95.1 °F 75.2 °F 70% 29.96 in 7.0 mi NNW 6.9 mph - N/A   Clear
4:46 PM 87.8 °F 92.6 °F 69.8 °F 55% 29.94 in 7.0 mi Calm Calm - N/A   Scattered Clouds
5:43 PM 87.8 °F 92.6 °F 69.8 °F 55% 29.93 in 7.0 mi Calm Calm - N/A   Scattered Clouds
6:41 PM 84.2 °F 90.9 °F 73.4 °F 70% 29.90 in 7.0 mi NE 6.9 mph - N/A   Scattered Clouds
7:46 PM 86.0 °F 95.1 °F 75.2 °F 70% 29.87 in 7.0 mi North 3.5 mph - N/A   Scattered Clouds
8:43 PM 86.0 °F 93.4 °F 73.4 °F 66% 29.87 in 7.0 mi NNE 8.1 mph - N/A   Scattered Clouds
9:40 PM 84.2 °F 90.9 °F 73.4 °F 70% 29.86 in 7.0 mi North 6.9 mph - N/A   Scattered Clouds
10:44 PM 82.4 °F 87.2 °F 71.6 °F 70% 29.86 in 7.0 mi North 5.8 mph - N/A   Clear
11:46 PM 78.8 °F - 69.8 °F 74% 29.88 in 7.0 mi North 3.5 mph - N/A   Clear